Wind_Speed
16 15 14 14 15 14 12 12 11 10 10 10 10 10 9 9 9 9 9 9 9 9 9 9 10 10 10 10 10 9 9 9 9 9 9 9 9 9 8 7 6 6 5 5 5 4 3 2 2
15 15 15 15 15 12 11 11 11 10 10 10 10 10 9 10 9 9 9 9 9 9 9 9 10 10 10 10 9 9 8 8 9 9 9 9 8 8 8 7 6 5 5 5 5 4 3 3 2
15 15 15 16 14 12 11 11 11 11 11 11 10 10 9 10 9 9 9 9 9 9 9 10 10 10 9 10 9 9 9 9 9 9 9 8 8 7 7 6 6 6 5 5 5 4 3 3 2
15 15 15 15 13 12 12 12 12 12 12 11 11 10 10 9 9 9 8 9 9 9 9 10 10 10 9 9 9 9 9 9 9 9 8 8 7 6 6 6 7 6 5 5 4 3 2 2 1
15 16 15 14 13 12 13 12 12 12 12 11 11 11 10 10 9 9 9 9 9 9 9 10 10 9 9 9 9 9 9 9 8 8 8 7 7 7 6 6 6 5 5 4 4 3 2 2 1
15 15 14 12 12 13 13 13 13 13 13 12 11 11 11 10 10 9 10 10 10 9 10 10 9 9 9 9 8 8 9 9 8 8 8 7 7 7 6 5 5 4 3 3 3 2 2 1 1
14 14 13 12 12 12 12 13 13 13 13 12 11 11 10 10 10 10 10 10 10 9 10 10 9 9 9 9 8 8 8 8 7 7 7 7 7 6 5 5 5 4 3 2 1 2 2 1 1
13 14 12 11 12 11 12 12 12 13 13 12 11 11 10 9 9 10 10 10 10 10 9 10 9 8 8 8 7 7 7 7 6 6 6 6 6 5 4 4 4 3 2 2 0 1 2 1 2
12 13 11 11 11 11 11 12 12 12 12 11 11 10 10 10 9 9 10 10 10 10 9 9 9 8 8 7 7 7 6 6 6 5 5 5 5 4 4 3 3 2 1 1 1 1 1 1 2
12 12 11 10 10 10 11 12 12 12 12 11 10 9 9 9 10 9 9 9 9 9 9 8 8 8 7 7 7 7 7 6 5 5 4 4 4 3 2 2 2 1 0 1 2 2 2 2 2
10 10 10 10 10 10 10 11 11 11 11 11 10 9 9 8 8 8 8 8 8 8 8 8 7 6 6 6 6 5 6 6 5 4 4 3 3 2 1 0 0 0 1 1 2 2 3 3 4
9 8 9 9 9 9 10 10 10 10 10 11 10 10 9 8 8 7 7 6 6 6 6 6 6 5 5 5 5 5 4 4 3 2 2 2 2 1 1 1 2 2 3 2 3 3 4 5 5
7 8 8 8 9 9 9 10 10 9 10 10 10 10 10 9 8 7 6 6 5 5 5 5 5 5 4 4 3 4 3 2 2 2 1 1 1 1 0 1 1 2 2 3 3 4 4 4 5
6 7 7 8 8 8 9 9 8 8 9 9 10 10 9 9 8 7 7 6 5 5 4 4 4 3 4 4 4 3 3 2 2 2 1 1 0 0 1 1 1 2 2 3 4 4 4 4 4
5 6 7 7 7 8 8 9 8 8 8 8 9 9 8 8 8 7 7 6 5 5 4 3 3 3 3 3 3 3 2 2 1 1 1 1 1 0 0 0 1 1 2 3 3 4 5 5 5
4 6 6 5 5 6 8 9 8 7 7 7 8 8 8 8 8 7 6 6 5 4 3 3 3 3 3 3 2 2 2 2 2 2 2 2 1 1 1 1 2 2 2 3 4 5 5 6 6
3 4 3 3 3 5 6 7 7 7 6 6 7 7 7 6 7 6 6 5 4 3 3 3 3 3 3 3 3 3 3 3 3 3 3 2 2 2 2 2 3 3 3 4 5 5 6 6 7
1 1 1 2 2 4 6 6 7 7 6 6 6 6 6 6 5 5 5 4 4 3 3 3 3 3 2 2 3 3 3 3 4 4 3 3 3 3 3 3 4 5 5 5 6 6 7 7 8
2 0 0 0 2 2 4 5 6 6 6 6 5 5 5 5 5 4 4 4 3 3 3 3 3 3 3 3 4 5 5 4 4 4 4 4 4 3 3 4 4 5 6 7 7 7 8 8 8
2 1 1 2 3 3 3 4 4 5 6 6 6 5 5 5 4 4 4 4 4 4 3 3 3 4 4 5 5 5 5 5 5 5 5 5 5 4 4 5 6 6 7 8 8 8 8 9 9
3 2 2 3 3 3 3 5 5 6 6 6 7 6 5 6 5 4 4 4 5 4 4 4 4 4 4 5 6 6 5 6 6 6 6 6 6 5 5 6 7 7 7 8 9 9 9 10 11
5 5 4 3 3 4 4 5 6 6 6 7 8 7 6 6 5 5 5 5 4 4 4 4 4 5 5 6 6 6 6 6 7 7 7 7 7 6 7 7 7 8 9 10 10 10 10 11 11
8 7 6 5 6 5 6 5 7 8 7 7 7 7 7 7 6 6 6 5 5 5 5 5 5 5 6 7 7 7 7 8 8 8 9 8 7 7 7 7 8 9 10 11 11 12 12 13 13
10 9 8 8 6 7 8 7 8 9 8 8 7 7 7 7 7 7 6 6 6 6 6 6 6 6 7 7 8 8 8 8 9 9 8 8 9 9 8 9 10 11 11 12 13 13 14 15 15
12 10 9 9 8 10 10 9 9 10 9 9 8 8 8 8 8 8 8 8 8 8 8 8 8 8 9 9 9 9 9 10 10 10 10 10 11 11 11 11 12 12 13 13 14 15 15 16 17
14 12 11 10 11 11 13 11 11 12 11 10 10 9 9 9 9 9 10 10 10 10 10 10 9 10 10 11 11 11 12 12 12 11 11 12 12 12 14 14 14 14 15 15 16 16 16 17 18
16 15 14 13 13 12 13 14 13 13 13 12 12 11 11 11 11 11 11 12 12 12 12 12 12 12 12 12 12 13 13 13 13 13 13 14 14 14 15 15 16 16 16 16 17 17 18 18 19
19 17 15 14 13 13 14 14 14 14 13 13 13 13 13 13 13 13 13 14 14 13 13 14 14 14 14 13 14 14 14 15 15 15 14 15 16 16 16 17 17 17 18 18 18 18 18 19 19
20 19 18 16 16 14 14 15 16 16 15 15 15 16 16 15 15 15 15 16 15 15 15 15 14 15 15 15 15 16 16 17 17 17 16 17 18 18 18 18 19 19 19 19 19 20 19 20 21
22 21 19 18 19 18 17 17 18 18 17 17 17 17 17 17 17 17 16 16 16 16 16 16 16 17 17 17 17 18 19 19 19 19 19 19 19 20 20 20 20 20 20 20 21 22 22 22 22
Wind_Direction
86 84 83 84 80 77 77 78 79 82 83 81 83 86 85 90 92 92 94 97 101 102 105 106 108 109 109 111 116 119 119 122 125 124 124 126 132 138 139 142 146 150 149 151 155 155 147 132 136
87 86 84 83 82 81 80 78 77 78 81 80 84 85 82 86 89 93 97 99 103 104 107 108 109 108 110 112 114 117 119 124 127 125 124 122 124 130 136 140 142 141 147 148 150 149 134 137 140
85 85 84 81 82 82 79 77 75 76 80 80 81 83 84 86 90 96 100 102 105 106 109 110 112 111 111 113 113 116 117 119 122 122 125 123 122 123 129 143 145 137 139 145 149 148 140 139 144
85 86 81 77 78 78 75 74 74 74 76 77 79 83 85 88 91 96 103 103 106 108 111 112 112 113 115 116 115 117 118 120 121 123 127 125 124 121 122 140 144 134 135 143 146 150 148 155 163
87 83 76 74 74 73 72 69 69 70 70 73 77 78 81 86 90 95 100 104 107 110 112 114 114 112 115 117 117 119 118 116 119 125 129 127 123 123 124 130 139 134 135 141 149 148 145 154 184
90 83 79 77 72 71 69 67 67 70 69 72 78 79 79 83 88 93 98 104 108 111 114 112 113 112 114 118 119 119 119 118 121 126 129 131 129 129 131 128 139 138 137 145 158 161 159 166 177
89 85 80 76 70 67 66 67 68 71 70 71 75 78 78 83 89 93 98 102 106 109 113 114 110 110 110 114 118 120 126 123 124 125 130 134 135 132 125 126 134 136 130 140 177 200 190 194 220
90 85 79 75 72 67 64 64 67 70 68 69 72 74 78 83 91 96 97 100 104 108 113 113 112 112 113 115 118 120 122 122 122 122 119 125 132 134 129 131 132 138 124 116 124 222 198 212 246
90 87 84 80 75 71 68 66 67 68 65 66 68 72 76 81 89 95 99 99 103 107 110 111 109 109 112 115 121 121 120 118 122 125 119 117 122 125 123 122 126 140 155 163 245 246 250 268 275
88 88 85 81 74 69 69 69 70 68 63 62 63 67 73 80 87 94 100 101 108 113 113 112 110 109 112 114 119 112 109 112 115 120 123 125 126 124 122 118 114 133 286 282 299 282 278 291 287
86 83 80 78 71 68 66 67 69 68 63 61 63 64 69 78 87 91 97 100 104 112 112 109 109 107 108 111 114 104 106 102 103 107 113 131 137 143 144 143 203 265 278 292 302 297 292 283 280
81 78 78 74 69 67 65 64 65 64 59 59 62 65 67 76 85 91 91 100 105 108 111 105 101 100 104 103 97 102 106 99 95 97 99 125 139 155 177 216 246 265 271 271 285 293 299 288 280
80 79 77 72 68 66 64 62 60 61 58 57 62 63 62 64 75 84 91 95 101 106 110 105 102 94 90 91 92 91 97 85 85 91 98 107 132 169 252 298 260 268 273 275 289 289 290 285 292
74 72 69 66 67 65 65 60 57 57 53 54 58 58 58 59 65 75 84 90 94 99 97 96 100 92 85 79 77 73 74 81 74 52 12 342 322 330 306 291 265 270 282 293 295 295 290 286 290
69 66 59 60 62 57 56 54 51 48 51 53 53 50 51 57 63 68 74 82 87 88 78 73 81 85 83 81 80 73 80 72 41 8 357 6 2 18 22 283 280 280 288 293 297 294 293 294 294
66 65 52 55 60 49 50 45 42 43 47 52 48 47 49 54 59 63 70 77 79 75 69 68 74 79 72 70 70 62 54 43 36 24 19 2 347 329 303 275 284 286 299 300 296 293 293 294 294
64 62 48 44 54 48 44 40 34 35 43 46 45 46 45 48 55 56 61 68 66 60 58 61 64 70 69 65 55 47 39 28 15 4 360 346 326 308 303 295 291 288 293 302 304 301 305 302 300
156 93 50 27 26 34 33 32 30 31 33 34 33 37 39 37 37 41 48 53 50 39 35 36 34 41 41 33 12 6 7 359 353 346 339 335 332 316 303 302 304 301 299 304 307 308 309 307 305
215 245 115 296 342 2 12 18 22 20 19 17 16 19 26 26 25 25 26 28 20 11 9 8 6 7 4 356 356 352 345 341 336 332 328 330 325 318 307 299 296 304 299 308 308 308 312 313 312
249 265 255 278 315 325 349 1 4 5 7 8 5 2 6 6 8 5 2 0 356 348 346 359 356 352 355 348 339 341 339 339 334 329 323 318 320 321 315 311 307 304 304 311 313 313 315 315 312
247 252 254 271 302 322 337 342 344 347 349 355 356 352 350 346 347 347 345 343 345 345 345 345 347 347 347 342 335 332 329 329 327 323 313 310 317 320 313 308 309 311 316 325 320 311 308 307 307
249 255 256 267 294 307 310 319 323 339 340 341 342 338 332 336 339 343 337 338 335 334 336 340 342 338 338 334 328 320 317 317 317 316 310 310 310 310 309 302 304 306 308 312 315 313 307 306 308
246 254 265 277 285 293 301 305 306 322 331 330 330 327 322 324 325 323 331 332 328 327 331 331 329 326 323 325 325 320 314 312 312 315 315 310 305 302 306 308 304 301 301 304 307 308 306 305 306
248 259 274 287 289 285 288 298 296 306 313 317 318 315 313 312 310 309 310 315 321 322 321 320 319 316 317 316 318 315 312 315 316 319 320 315 308 300 302 306 305 302 301 302 304 305 303 304 304
252 261 278 281 282 278 282 292 288 292 299 305 308 306 305 303 303 302 300 303 304 308 309 310 313 311 311 311 309 309 312 317 317 316 314 311 307 301 299 300 303 303 303 302 303 303 302 302 303
250 252 256 264 273 278 283 283 287 288 291 295 297 296 297 298 296 291 291 293 291 293 298 300 302 304 306 307 307 307 309 313 313 309 308 308 306 301 298 297 297 299 302 302 301 301 300 300 303
249 251 254 262 267 271 277 281 284 288 288 287 290 286 283 285 285 285 286 287 285 285 288 291 294 297 299 300 302 304 304 304 306 305 305 306 305 300 297 298 299 298 298 300 301 303 303 302 302
249 254 255 255 259 270 280 282 280 283 285 284 284 284 279 278 278 279 284 285 283 284 285 287 289 290 292 295 296 298 302 303 301 302 304 305 303 301 298 299 299 297 296 295 298 301 304 303 304
249 251 252 256 256 264 274 278 278 280 282 283 283 282 280 277 275 275 279 283 284 284 284 287 288 289 290 291 292 293 295 297 300 300 301 303 303 301 300 299 302 300 298 297 297 297 300 301 301
250 250 253 256 261 262 267 274 278 280 283 283 283 282 280 278 277 276 278 281 281 282 284 287 289 290 290 291 290 291 293 297 298 299 298 299 300 300 299 299 300 299 299 297 296 297 298 301 301
Height
5902 5902 5902 5902 5903 5903 5902 5902 5900 5899 5898 5897 5896 5896 5895 5895 5895 5896 5893 5892 5892 5891 5891 5891 5891 5892 5892 5892 5892 5892 5892 5892 5893 5893 5893 5893 5894 5894 5895 5895 5896 5896 5897 5897 5897 5897 5897 5897 5897
5904 5904 5905 5905 5905 5906 5905 5903 5902 5901 5899 5898 5897 5897 5896 5895 5895 5894 5893 5893 5893 5892 5892 5892 5893 5893 5893 5893 5893 5893 5893 5893 5894 5894 5894 5895 5895 5895 5896 5896 5896 5897 5897 5898 5898 5898 5898 5898 5898
5906 5906 5908 5907 5907 5907 5907 5905 5903 5902 5900 5899 5899 5898 5897 5896 5896 5895 5894 5894 5894 5894 5894 5894 5894 5894 5894 5894 5894 5894 5894 5894 5895 5895 5895 5895 5896 5896 5896 5896 5897 5897 5898 5898 5898 5898 5898 5898 5898
5909 5910 5910 5911 5910 5909 5908 5907 5905 5903 5902 5901 5900 5899 5898 5897 5897 5896 5895 5895 5895 5895 5895 5895 5895 5895 5895 5895 5895 5896 5896 5895 5896 5896 5896 5897 5897 5897 5897 5897 5898 5898 5898 5898 5898 5898 5898 5898 5898
5912 5912 5913 5913 5912 5911 5909 5908 5906 5905 5904 5902 5902 5900 5899 5898 5898 5897 5896 5896 5896 5896 5896 5896 5897 5897 5897 5897 5897 5897 5897 5897 5897 5897 5897 5898 5898 5898 5898 5898 5899 5899 5899 5899 5899 5898 5898 5898 5898
5915 5915 5917 5916 5914 5913 5911 5909 5908 5907 5905 5904 5903 5902 5901 5900 5899 5898 5897 5897 5897 5897 5897 5898 5898 5898 5898 5898 5898 5898 5898 5898 5898 5898 5898 5899 5899 5899 5899 5899 5899 5899 5899 5899 5899 5899 5898 5898 5898
5917 5918 5918 5918 5916 5915 5913 5911 5910 5908 5907 5906 5905 5903 5902 5901 5900 5900 5899 5899 5899 5899 5899 5899 5899 5899 5899 5899 5899 5899 5899 5899 5899 5899 5899 5899 5900 5900 5900 5899 5900 5900 5899 5899 5899 5899 5899 5898 5898
5919 5920 5921 5919 5918 5917 5915 5913 5911 5910 5909 5908 5906 5905 5904 5903 5902 5901 5901 5900 5900 5901 5901 5901 5901 5900 5900 5900 5900 5900 5900 5900 5900 5900 5900 5900 5900 5900 5900 5900 5900 5900 5899 5899 5899 5898 5898 5898 5898
5921 5924 5923 5921 5920 5918 5916 5914 5913 5911 5910 5909 5907 5906 5905 5904 5903 5903 5902 5902 5902 5902 5902 5902 5902 5902 5901 5901 5901 5901 5901 5901 5901 5901 5900 5900 5900 5900 5900 5900 5900 5900 5899 5899 5899 5898 5898 5897 5897
5924 5925 5924 5923 5921 5920 5918 5916 5915 5913 5912 5910 5909 5907 5906 5906 5905 5904 5904 5904 5903 5903 5904 5904 5904 5903 5903 5902 5902 5902 5901 5901 5901 5901 5901 5900 5900 5900 5900 5900 5900 5899 5899 5898 5898 5898 5897 5896 5896
5926 5925 5925 5924 5923 5921 5920 5918 5916 5915 5914 5912 5910 5909 5908 5907 5906 5906 5905 5905 5905 5905 5905 5905 5905 5904 5904 5903 5903 5902 5902 5902 5901 5901 5901 5901 5900 5900 5900 5900 5899 5899 5898 5898 5897 5896 5896 5895 5895
5928 5927 5926 5925 5924 5923 5921 5920 5918 5917 5915 5914 5912 5911 5909 5908 5908 5907 5907 5906 5906 5906 5906 5906 5905 5905 5905 5904 5904 5903 5903 5902 5902 5901 5901 5901 5900 5900 5900 5899 5898 5898 5897 5897 5897 5896 5895 5894 5893
5929 5929 5928 5926 5925 5924 5923 5921 5920 5918 5917 5915 5914 5912 5911 5910 5909 5908 5907 5907 5907 5907 5907 5907 5906 5906 5905 5905 5905 5904 5904 5903 5902 5902 5901 5900 5900 5899 5899 5899 5898 5897 5896 5896 5896 5895 5894 5893 5893
5931 5930 5929 5928 5927 5925 5924 5923 5921 5920 5918 5917 5915 5914 5913 5912 5911 5910 5909 5908 5908 5908 5908 5907 5907 5907 5906 5906 5905 5905 5904 5903 5902 5901 5900 5900 5899 5899 5898 5898 5897 5896 5896 5895 5895 5894 5893 5892 5892
5932 5932 5931 5930 5928 5927 5926 5925 5923 5921 5919 5918 5917 5915 5914 5913 5912 5911 5910 5910 5909 5909 5909 5908 5908 5907 5907 5906 5905 5905 5904 5903 5902 5901 5900 5899 5898 5897 5897 5896 5896 5896 5895 5894 5894 5893 5892 5891 5891
5933 5934 5934 5932 5930 5928 5929 5927 5925 5922 5921 5919 5918 5916 5915 5914 5913 5912 5911 5911 5910 5910 5910 5909 5908 5908 5907 5906 5906 5905 5904 5903 5902 5900 5899 5898 5897 5896 5896 5895 5895 5894 5894 5893 5893 5892 5891 5890 5890
5935 5936 5935 5933 5931 5930 5929 5928 5926 5924 5922 5921 5919 5917 5916 5915 5914 5913 5912 5912 5911 5911 5910 5909 5909 5908 5907 5906 5906 5905 5904 5903 5901 5900 5899 5897 5896 5895 5895 5894 5894 5893 5893 5892 5891 5891 5890 5889 5888
5936 5936 5935 5934 5932 5931 5930 5929 5927 5925 5923 5922 5920 5919 5917 5916 5915 5914 5913 5912 5912 5911 5910 5910 5909 5908 5907 5906 5906 5905 5903 5902 5901 5899 5898 5897 5895 5894 5894 5893 5892 5892 5892 5891 5890 5889 5888 5887 5886
5934 5934 5935 5933 5932 5931 5930 5929 5928 5926 5924 5923 5921 5920 5918 5917 5916 5915 5914 5913 5912 5911 5911 5910 5909 5908 5907 5906 5905 5904 5903 5901 5900 5899 5897 5896 5895 5893 5893 5892 5891 5891 5890 5890 5889 5888 5886 5885 5884
5934 5934 5934 5933 5932 5931 5930 5930 5928 5927 5925 5924 5922 5921 5919 5918 5917 5916 5915 5913 5912 5912 5911 5910 5909 5908 5907 5906 5904 5903 5902 5900 5899 5898 5896 5895 5894 5892 5892 5891 5890 5889 5889 5888 5887 5886 5884 5883 5882
5933 5933 5933 5933 5932 5932 5931 5931 5929 5928 5926 5924 5923 5921 5920 5918 5917 5916 5915 5914 5913 5912 5911 5910 5909 5907 5907 5905 5904 5903 5901 5900 5898 5897 5895 5894 5892 5891 5890 5890 5889 5888 5887 5886 5885 5884 5882 5881 5880
5932 5932 5932 5932 5932 5932 5932 5932 5930 5927 5926 5924 5923 5921 5920 5919 5917 5916 5915 5914 5913 5912 5911 5910 5909 5907 5906 5905 5904 5902 5900 5898 5897 5896 5894 5893 5891 5890 5889 5888 5887 5887 5886 5884 5883 5882 5880 5879 5877
5930 5930 5930 5931 5931 5932 5931 5931 5931 5927 5925 5924 5922 5920 5919 5918 5917 5916 5915 5914 5913 5912 5911 5910 5908 5907 5906 5904 5902 5901 5899 5897 5896 5894 5893 5891 5890 5888 5887 5886 5886 5885 5883 5882 5881 5879 5878 5876 5874
5928 5929 5929 5929 5931 5932 5930 5930 5929 5927 5924 5923 5921 5920 5919 5917 5916 5915 5914 5913 5912 5911 5910 5909 5908 5907 5905 5903 5901 5900 5897 5896 5894 5893 5891 5889 5888 5886 5885 5884 5883 5882 5881 5879 5878 5876 5875 5873 5871
5926 5928 5930 5930 5930 5930 5928 5927 5927 5924 5922 5921 5920 5918 5917 5916 5915 5914 5913 5912 5911 5910 5909 5908 5907 5905 5904 5902 5900 5898 5896 5894 5893 5891 5889 5888 5886 5884 5883 5882 5880 5879 5878 5876 5875 5873 5871 5870 5868
5923 5926 5928 5929 5929 5928 5925 5924 5924 5921 5920 5919 5918 5916 5915 5915 5914 5913 5912 5911 5910 5909 5907 5906 5905 5903 5902 5900 5899 5897 5895 5893 5891 5889 5887 5885 5883 5882 5880 5879 5878 5876 5874 5873 5871 5869 5867 5866 5863
5919 5921 5923 5924 5923 5923 5923 5921 5920 5918 5917 5916 5915 5914 5913 5912 5911 5910 5910 5909 5908 5906 5905 5904 5903 5901 5900 5898 5896 5895 5893 5891 5889 5887 5885 5883 5881 5879 5877 5876 5874 5872 5871 5869 5867 5865 5863 5861 5859
5915 5917 5918 5919 5919 5920 5920 5918 5917 5915 5914 5913 5912 5911 5910 5909 5908 5908 5907 5906 5905 5904 5903 5901 5900 5898 5897 5895 5894 5892 5890 5888 5886 5884 5882 5880 5878 5876 5874 5872 5870 5868 5867 5865 5863 5861 5859 5857 5854
5911 5912 5913 5914 5915 5916 5917 5918 5913 5911 5910 5909 5908 5907 5906 5905 5905 5904 5903 5902 5901 5900 5899 5898 5896 5895 5893 5892 5890 5889 5887 5884 5883 5881 5878 5876 5874 5872 5870 5868 5866 5864 5862 5860 5858 5856 5854 5852 5849
5905 5907 5908 5910 5909 5910 5911 5914 5908 5907 5906 5905 5904 5903 5902 5901 5900 5900 5899 5898 5897 5896 5895 5894 5893 5891 5890 5888 5886 5885 5883 5880 5878 5876 5874 5872 5870 5868 5865 5863 5861 5859 5857 5855 5853 5851 5849 5846 5844